User: anonymous   Login
Location: Unspecified
(0.0000°N, 0.0000°E)
Time: 14:25:26
(UTC+00:00)
Language:

AO-7 - Orbit

View from above orbital plane
View from above orbital plane
View from above satellite
View from above satellite

Ground track
Ground track

The orbit data is extracted from the following two-line orbital elements,

1  7530U 74089B   19235.85953426 -.00000018 +00000-0 +16923-3 0  9999
2  7530 101.7498 202.8572 0011774 218.5147 195.0212 12.53639478048573
Epoch (UTC): 23 August 2019 20:37:43
Eccentricity: 0.0011774
inclination: 101.7498°
perigee height: 1440 km
apogee height: 1458 km
right ascension of ascending node: 202.8572°
argument of perigee: 218.5147°
revolutions per day: 12.53639478
mean anomaly at epoch: 195.0212°
orbit number at epoch: 4857

The dashed part of the orbit path shows where the satellite is in the earth's shadow,  

DLR